Stations météo

réclame
Mon MeteoGroup
Strathallan, Grande-Bretagne (3144): Température de l'air & dewpoint: 18.10.2018 06:00:00 - 24.10.2018 06:00:00 (BST)Strathallan, Grande-Bretagne (3144): Température de l'air -20cm & Température de l'air -100cm: 18.10.2018 06:00:00 - 24.10.2018 06:00:00 (BST)Strathallan, Grande-Bretagne (3144): Vitesse du vent & gusts: 18.10.2018 06:00:00 - 24.10.2018 06:00:00 (BST)Strathallan, Grande-Bretagne (3144): Direction du vent: 18.10.2018 06:00:00 - 24.10.2018 06:00:00 (BST)Strathallan, Grande-Bretagne (3144): reduced air pressure: 18.10.2018 06:00:00 - 24.10.2018 06:00:00 (BST)Strathallan, Grande-Bretagne (3144): visibility: 18.10.2018 06:00:00 - 24.10.2018 06:00:00 (BST)Strathallan, Grande-Bretagne (3144): Quantités de précipitations: 18.10.2018 06:00:00 - 24.10.2018 06:00:00 (BST)
Date & Time tt [°C] td [°C] tt -20cm [°C] tt -100cm [°C] ff [km/h] ff [knt] fx [km/h] fx [knt] dd ppp [hPa] vv [km] rr [mm]
24.10.2018 06:00:00 11,5 8,8 - - 18 10 - - SSW 1025,5 50 0,0
24.10.2018 05:00:00 12,6 8,9 - - 16 9 - - WSW 1025,2 50 0,0
24.10.2018 04:00:00 12,9 9,3 - - 29 16 - - SW 1024,9 50 0,0
24.10.2018 03:00:00 11,9 9,4 - - 22 12 - - WSW 1025,1 50 0,0
24.10.2018 02:00:00 12,0 9,4 - - 21 11 - - SW 1025,1 50 0,0
24.10.2018 01:00:00 12,1 9,6 - - 24 13 - - SW 1025,1 50 0,0
24.10.2018 00:00:00 12,6 9,6 - - 26 14 54 29 WSW 1024,6 50 0,0
23.10.2018 23:00:00 12,6 10,2 - - 37 20 55 30 WSW 1024,0 50 0,0
23.10.2018 22:00:00 12,9 10,5 - - 39 21 59 32 WSW 1023,3 50 0,0
23.10.2018 21:00:00 12,7 10,8 - - 39 21 57 31 WSW 1023,3 50 0,0
23.10.2018 20:00:00 12,7 10,7 - - 37 20 61 33 SW 1023,0 50 0,0
23.10.2018 19:00:00 13,1 10,5 - - 34 18 50 27 SW 1023,2 50 0,0
23.10.2018 18:00:00 13,5 10,3 - - 28 15 46 25 SW 1022,7 50 0,0
23.10.2018 17:00:00 13,9 10,2 - - 24 13 - - SW 1022,9 50 0,0
23.10.2018 16:00:00 14,9 10,2 - - 28 15 46 25 WSW 1022,6 50 0,0
23.10.2018 15:00:00 15,3 10,5 - - 29 16 54 29 WSW 1022,6 45 0,0
23.10.2018 14:00:00 14,2 10,3 - - 39 21 63 34 WSW 1022,5 50 0,0
23.10.2018 13:00:00 14,5 10,7 - - 41 22 67 36 WSW 1022,1 40 0,0
23.10.2018 12:00:00 13,9 10,1 - - 42 23 59 32 WSW 1022,2 45 0,0
23.10.2018 11:00:00 13,0 10,1 - - 39 21 55 30 SW 1022,6 40 0,0
23.10.2018 10:00:00 12,0 9,4 10,0 11,7 31 17 52 28 SW 1022,4 45 0,0
23.10.2018 09:00:00 11,1 9,0 - - 29 16 48 26 SW 1022,4 50 0,0
23.10.2018 08:00:00 10,8 8,9 - - 26 14 - - SW 1022,5 22 0,0
23.10.2018 07:00:00 11,0 8,4 - - 29 16 48 26 SW 1022,2 14 0,0
23.10.2018 06:00:00 11,2 7,6 - - 28 15 54 29 SW 1022,3 14 0,0
23.10.2018 05:00:00 10,7 8,3 - - 31 17 50 27 SW 1022,5 17 0,0
23.10.2018 04:00:00 10,4 9,0 - - 29 16 55 30 SW 1022,9 10 0,0
23.10.2018 03:00:00 10,1 9,0 - - 35 19 57 31 SW 1023,4 11 0,0
23.10.2018 02:00:00 10,3 8,6 - - 34 18 55 30 SW 1024,0 15 0,0
23.10.2018 01:00:00 10,8 7,8 - - 39 21 59 32 WSW 1024,6 18 0,0
23.10.2018 00:00:00 11,5 6,8 - - 37 20 57 31 WSW 1025,6 16 0,0
22.10.2018 23:00:00 11,5 6,8 - - 39 21 61 33 WSW 1025,9 19 0,0
22.10.2018 22:00:00 12,0 5,9 - - 42 23 65 35 WSW 1026,5 19 0,0
22.10.2018 21:00:00 11,9 5,7 - - 39 21 63 34 WSW 1027,1 21 0,0
22.10.2018 20:00:00 11,8 5,5 - - 35 19 55 30 WSW 1028,1 20 0,0
22.10.2018 19:00:00 11,1 5,8 - - 21 11 - - WSW 1028,2 27 0,0
22.10.2018 18:00:00 10,7 5,9 - - 24 13 65 35 SW 1028,9 22 0,0
22.10.2018 17:00:00 10,6 7,6 - - 35 19 57 31 SW 1029,0 35 0,0
22.10.2018 16:00:00 10,4 7,9 - - 31 17 55 30 SW 1030,0 45 0,0
22.10.2018 15:00:00 10,9 7,4 - - 37 20 52 28 SW 1031,0 17 0,0
22.10.2018 14:00:00 10,5 7,3 - - 29 16 55 30 SW 1032,1 25 0,0
22.10.2018 13:00:00 11,0 6,8 - - 39 21 55 30 SW 1032,4 21 0,0
22.10.2018 12:00:00 10,7 5,2 - - 26 14 - - SW 1033,0 27 0,0
22.10.2018 11:00:00 9,8 5,4 - - 22 12 - - SW 1034,0 30 0,0
22.10.2018 10:00:00 9,1 5,0 10,0 11,9 18 10 - - SW 1034,0 30 0,0
22.10.2018 09:00:00 8,1 4,2 - - 18 10 - - SW 1033,3 29 0,0
22.10.2018 08:00:00 8,0 4,1 - - 11 6 - - SW 1033,2 30 0,0
22.10.2018 07:00:00 7,8 3,8 - - 13 7 - - WSW 1032,8 30 0,0
22.10.2018 06:00:00 8,3 3,3 - - 13 7 - - WSW 1032,4 30 0,0
22.10.2018 05:00:00 8,5 2,5 - - 16 9 - - WSW 1032,2 27 0,0
22.10.2018 04:00:00 8,5 2,1 - - 18 10 - - SW 1031,6 20 0,0
22.10.2018 03:00:00 7,6 1,2 - - 13 7 - - SW 1031,4 28 0,0
22.10.2018 02:00:00 7,9 1,8 - - 24 13 - - WSW 1030,5 45 0,0
22.10.2018 01:00:00 7,8 2,8 - - 15 8 - - WSW 1030,6 45 0,0
22.10.2018 00:00:00 7,8 2,1 - - 9 5 - - SW 1029,8 29 0,0
21.10.2018 23:00:00 8,4 2,1 - - 16 9 - - WSW 1029,4 40 0,0
21.10.2018 22:00:00 8,7 2,1 - - 26 14 - - WSW 1028,4 35 0,0
21.10.2018 21:00:00 8,8 2,6 - - 24 13 - - WSW 1028,1 35 0,0
21.10.2018 20:00:00 8,9 2,4 - - 22 12 - - WSW 1027,3 40 0,0
21.10.2018 19:00:00 8,7 2,0 - - 21 11 46 25 WSW 1026,8 45 0,0
21.10.2018 18:00:00 9,8 2,4 - - 22 12 50 27 W 1025,9 29 0,0
21.10.2018 17:00:00 10,6 3,4 - - 29 16 50 27 W 1025,2 40 0,0
21.10.2018 16:00:00 12,3 4,3 - - 34 18 52 28 W 1023,7 40 0,0
21.10.2018 15:00:00 12,4 6,9 - - 16 9 - - WSW 1023,3 50 0,0
21.10.2018 14:00:00 12,6 9,5 - - 16 9 - - SW 1022,6 45 0,0
21.10.2018 13:00:00 11,4 7,7 - - 16 9 - - WSW 1022,5 40 0,0
21.10.2018 12:00:00 12,4 9,3 - - 22 12 52 28 WSW 1021,9 50 0,0
21.10.2018 11:00:00 12,7 9,9 - - 11 6 - - WSW 1021,0 45 0,0
21.10.2018 10:00:00 12,9 10,5 10,7 12,0 21 11 - - W 1020,3 45 0,4
21.10.2018 09:00:00 14,5 14,0 - - 21 11 - - SW 1018,5 2,8 0,2
21.10.2018 08:00:00 14,8 13,9 - - 21 11 - - SW 1018,5 3,0 0,0
21.10.2018 07:00:00 15,0 14,0 - - 18 10 - - SSW 1018,5 8 0,2
21.10.2018 06:00:00 15,0 14,1 - - 21 11 - - SW 1018,9 50 0,2
21.10.2018 05:00:00 14,5 13,8 - - 18 10 - - SW 1019,5 11 0,0
21.10.2018 04:00:00 15,0 13,8 - - 26 14 - - SW 1020,1 26 0,0
21.10.2018 03:00:00 14,7 13,9 - - 18 10 - - SW 1020,9 20 0,2
21.10.2018 02:00:00 14,8 14,2 - - 22 12 - - SW 1021,5 7 0,0
21.10.2018 01:00:00 14,3 13,9 - - 8 4 - - SW 1022,5 5 0,0
21.10.2018 00:00:00 14,2 13,9 - - 16 9 - - SW 1023,0 3,8 0,0
20.10.2018 23:00:00 14,1 13,6 - - 18 10 - - SW 1023,4 4,3 0,0
20.10.2018 22:00:00 14,0 13,5 - - 18 10 - - SW 1023,8 6 0,0
20.10.2018 21:00:00 13,6 13,3 - - 8 4 - - W 1024,1 5 0,0
20.10.2018 20:00:00 13,7 13,3 - - 13 7 - - WSW 1024,1 6 0,0
20.10.2018 19:00:00 13,6 13,0 - - 18 10 - - WSW 1023,9 21 0,0
20.10.2018 18:00:00 13,6 12,8 - - 24 13 - - SW 1023,5 21 0,0
20.10.2018 17:00:00 13,8 12,6 - - 21 11 - - SW 1023,2 45 0,0
20.10.2018 16:00:00 14,2 12,6 - - 24 13 - - SW 1023,4 35 0,0
20.10.2018 15:00:00 14,0 12,5 - - 24 13 - - SW 1023,7 50 0,0
20.10.2018 14:00:00 14,3 12,4 - - 21 11 - - SW 1023,9 30 0,0
20.10.2018 13:00:00 13,9 12,1 - - 16 9 - - SW 1024,4 30 0,0
20.10.2018 12:00:00 13,9 12,3 - - 28 15 - - SW 1023,9 40 0,0
20.10.2018 11:00:00 12,7 12,7 - - 21 11 - - SW 1024,6 17 -
20.10.2018 10:00:00 12,0 12,0 9,5 12,0 13 7 - - SW 1024,0 5 0,0
20.10.2018 09:00:00 11,5 11,4 - - 9 5 - - WSW 1023,6 7 0,0
20.10.2018 08:00:00 8,6 8,6 - - 8 4 - - SW 1023,4 5 0,2
20.10.2018 07:00:00 7,9 7,9 - - 4 2 - - E 1023,9 4,1 0,0
20.10.2018 06:00:00 7,4 7,4 - - 2 1 - - WNW 1024,3 6 0,0
20.10.2018 05:00:00 6,8 6,8 - - 2 1 - - WSW 1024,1 3,3 0,0
20.10.2018 04:00:00 6,6 6,6 - - 2 1 - - S 1024,6 9 0,0
20.10.2018 03:00:00 5,8 5,8 - - 5 3 - - E 1025,1 14 0,0
20.10.2018 02:00:00 5,2 5,1 - - 2 1 - - WSW 1025,1 14 0,0
20.10.2018 01:00:00 4,7 4,2 - - 4 2 - - W 1025,6 12 0,0
20.10.2018 00:00:00 5,9 5,1 - - 2 1 - - W 1025,7 13 0,0
19.10.2018 23:00:00 6,9 5,5 - - 2 1 - - NNW 1025,4 16 0,0
19.10.2018 22:00:00 7,8 6,3 - - 8 4 - - WSW 1025,2 18 0,0
19.10.2018 21:00:00 8,5 6,7 - - 9 5 - - W 1024,8 20 0,0
19.10.2018 20:00:00 8,3 5,7 - - 2 1 - - ENE 1024,2 27 0,0
19.10.2018 19:00:00 9,0 5,8 - - 13 7 - - WSW 1023,4 26 0,0
19.10.2018 18:00:00 9,6 5,0 - - 11 6 - - WSW 1022,3 28 0,0
19.10.2018 17:00:00 12,5 5,6 - - 18 10 - - W 1021,8 40 0,0
19.10.2018 16:00:00 12,5 9,7 - - 18 10 - - SW 1020,9 45 0,0
19.10.2018 15:00:00 12,8 10,6 - - 21 11 - - SW 1020,5 50 0,0
19.10.2018 14:00:00 10,7 9,5 - - 24 13 - - SW 1020,3 23 0,0
19.10.2018 13:00:00 10,6 9,3 - - 18 10 - - SW 1020,4 13 0,0
19.10.2018 12:00:00 9,6 8,8 - - 11 6 - - SW 1020,5 5 0,0
19.10.2018 11:00:00 9,8 7,6 - - 8 4 - - WSW 1020,4 20 0,0
19.10.2018 10:00:00 9,2 6,3 9,4 12,2 9 5 - - W 1020,5 40 0,0
19.10.2018 09:00:00 8,3 5,9 - - 9 5 - - WNW 1020,4 40 0,0
19.10.2018 08:00:00 7,6 5,5 - - 8 4 - - W 1020,5 35 0,0
19.10.2018 07:00:00 7,2 5,1 - - 4 2 - - W 1020,5 40 0,0
19.10.2018 06:00:00 6,0 5,3 - - 8 4 - - WSW 1020,9 45 0,0
19.10.2018 05:00:00 6,8 5,4 - - 8 4 - - SSW 1021,8 45 0,0
19.10.2018 04:00:00 6,7 5,4 - - 5 3 - - W 1022,5 30 0,0
19.10.2018 03:00:00 7,0 6,5 - - 9 5 - - SW 1023,1 40 0,0
19.10.2018 02:00:00 4,8 4,8 - - 4 2 - - WNW 1023,6 35 0,0
19.10.2018 01:00:00 3,9 3,7 - - 2 1 - - W 1024,3 22 0,0
19.10.2018 00:00:00 4,2 4,0 - - 5 3 - - WSW 1025,1 40 0,0
18.10.2018 23:00:00 4,4 4,3 - - 5 3 - - SW 1025,5 45 0,0
18.10.2018 22:00:00 4,6 4,3 - - 4 2 - - WSW 1025,8 22 0,0
18.10.2018 21:00:00 5,2 4,8 - - 5 3 - - SW 1026,2 30 0,0
18.10.2018 20:00:00 5,1 4,5 - - 0 0 - - N 1026,2 30 0,0
18.10.2018 19:00:00 6,8 5,6 - - 5 3 - - SW 1026,4 28 0,0
18.10.2018 18:00:00 9,4 6,5 - - 5 3 - - SW 1026,6 40 0,0
18.10.2018 17:00:00 10,3 7,1 - - 5 3 - - SW 1026,8 45 0,0
18.10.2018 16:00:00 10,7 6,2 - - 15 8 - - SW 1026,9 45 0,0
18.10.2018 15:00:00 11,1 5,8 - - 13 7 - - WSW 1027,4 40 0,0
18.10.2018 14:00:00 11,1 5,7 - - 15 8 - - SW 1027,8 35 0,0
18.10.2018 13:00:00 11,0 6,4 - - 8 4 - - SSW 1028,1 40 0,0
18.10.2018 12:00:00 10,0 7,5 - - 2 1 - - W 1028,7 23 0,0
18.10.2018 11:00:00 6,8 6,8 - - 2 1 - - SE 1029,2 30 0,0
18.10.2018 10:00:00 3,3 3,3 9,7 12,2 2 1 - - NNE 1029,0 40 0,2
18.10.2018 09:00:00 1,1 1,1 - - 2 1 - - SE 1029,2 15 0,0
18.10.2018 08:00:00 -0,5 -0,5 - - 5 3 - - WNW 1028,7 15 0,0
18.10.2018 07:00:00 0,6 0,6 - - 2 1 - - SSW 1028,3 14 0,0
18.10.2018 06:00:00 1,2 1,2 - - 2 1 - - NW 1027,8 24 0,0

tt = Température de l'air
td = dewpoint
tt -20cm = Température de l'air -20cm
tt -100cm = Température de l'air -100cm
ff = Vitesse du vent
fx = gusts
dd = Direction du vent
ppp = reduced air pressure
vv = visibility
rr = Quantités de précipitations

stations d'obs. à proximité